#timestamp,LO_Frequency,Hit,StdDev 
1640192415.6,286047002.1,N
1640192435.4,286047004.0,N
1640192455.3,286046999.7,N
1640192475.1,286047002.2,N
1640192495.9,286046999.9,N
1640192515.7,286046999.7,N
1640192535.5,286047002.4,N
1640192555.4,286047000.4,N
1640192575.2,286047000.8,N
1640192595.0,286047000.5,N
1640192596.0,286047000.5,N
1640192615.8,286047001.2,N
1640192635.6,286047002.6,N
1640192655.5,286047000.1,N
1640192675.3,286047000.0,N
1640192695.1,286046999.8,N
1640192715.9,286047002.0,N
1640192735.7,286047002.2,N
1640192755.6,286047001.6,N
1640192775.4,286047002.0,N
1640192795.2,286047002.3,N
1640192815.1,286047002.4,N
1640192816.0,286047002.4,N
1640192835.8,286047002.4,N
1640192855.6,286047000.5,N
1640192875.5,286047001.2,N
1640192895.3,286047000.8,N
1640192915.2,286046998.3,N
1640192935.9,286046998.1,N
1640192955.7,286046998.3,N
1640192975.6,286046998.5,N
1640192995.4,286047000.8,N
1640193015.2,286047000.0,N
1640193035.1,286047000.8,N
1640193036.0,286047000.8,N
1640193055.8,286047001.2,N
1640193075.7,286046998.6,N
1640193095.5,286046998.6,N
1640193115.3,286047000.8,N
1640193135.2,286047001.1,N
1640193155.0,286046998.6,N
1640193155.9,286046998.6,N
1640193175.7,286046996.6,N
1640193195.6,286046999.4,N
1640193215.4,286046996.5,N
1640193235.3,286046997.2,N
1640193255.1,286046997.2,N
1640193256.0,286046997.2,N
1640193275.8,286046999.1,N
1640193295.7,286046998.3,N
1640193315.5,286046998.3,N
1640193335.3,286046997.4,N
1640193355.2,286046996.9,N
1640193375.0,286046999.5,N
1640193375.9,286046999.5,N
1640193395.8,286046999.0,N
1640193415.6,286046998.2,N
1640193465.5,286046999.2,E
1640193475.4,286046997.7,N
1640193495.2,286046996.5,P
1640193515.1,286046997.7,P
1640193516.0,286046997.7,Y
1640193535.8,286047000.7,P
1640193555.7,286046999.9,N
1640193575.5,286047001.5,N
1640193595.3,286047002.4,N
1640193615.2,286047002.3,N
1640193635.9,286047001.2,N
1640193655.7,286046998.5,N
1640193675.6,286047001.2,N
1640193695.4,286046998.8,N
1640193715.3,286046998.4,N
1640193735.1,286047000.8,N
1640193736.0,286047000.8,N
1640193755.8,286047001.1,N
1640193775.7,286046998.2,N
1640193795.5,286046998.5,N
1640193815.3,286046999.3,N
1640193835.2,286046999.2,N
1640193855.0,286046997.9,N
1640193855.9,286046997.9,N
1640193875.8,286046995.1,Y
1640193895.6,286046996.9,P
1640193915.4,286046996.7,N
1640193935.3,286046996.7,N
1640193955.1,286046997.2,N
1640193975.8,286046998.0,N
1640193995.7,286046997.9,N
1640194015.5,286046995.1,Y
1640194035.4,286047000.6,P
1640194055.2,286047000.9,N
1640194075.0,286047002.3,N
1640194075.9,286047002.3,N
1640194095.8,286047004.3,N
1640194115.6,286047001.9,N
1640194135.5,286047002.5,N
1640194155.3,286047001.8,N
1640194175.1,286047004.4,N
1640194195.9,286047004.1,N
1640194215.7,286047002.2,N
1640194235.5,286047002.3,N
1640194255.4,286047002.2,N
1640194275.2,286047001.9,N
1640194295.1,286047003.8,N
1640194296.0,286047003.8,N
1640194315.8,286047002.9,N
1640194335.6,286047003.3,N
1640194355.5,286047004.8,Y
1640194375.3,286047001.5,P
1640194395.1,286047001.6,P
1640194415.9,286047001.9,P
1640194435.7,286047002.5,Y
1640194455.6,286047000.9,P
1640194475.4,286047001.0,N
1640194495.2,286047000.0,N
1640194515.1,286047000.6,N
1640194516.0,286047000.6,N
1640194535.8,286047001.0,N
1640194555.7,286047000.3,N
1640194575.5,286046998.1,Y
1640194595.3,286046999.6,P
1640194615.2,286046998.4,N
1640194635.0,286046998.1,N
1640194635.9,286046998.1,N
1640194655.7,286046999.5,N
1640194675.6,286046999.6,N
1640194695.4,286046999.4,N
1640194715.3,286046998.9,N
1640194735.1,286047000.7,N
1640194736.0,286047000.7,N
1640194755.8,286046998.1,N
1640194775.7,286047001.2,N
1640194795.5,286046999.7,N
1640194815.3,286047002.8,N
1640194835.2,286047001.9,N
1640194855.0,286047002.6,N
1640194855.9,286047002.6,N
1640194875.8,286047002.7,N
1640194895.6,286047002.0,N
1640194915.4,286046999.8,N
1640194935.3,286047000.3,N
1640194955.1,286047000.1,N
1640194975.8,286047002.7,N
1640194995.7,286047001.3,N
1640195015.5,286046999.8,N
1640195035.3,286047003.8,N
1640195055.2,286047001.3,N
1640195075.0,286047002.7,N
1640195075.9,286047002.7,N
1640195095.8,286047001.6,N
1640195115.6,286047001.4,N
1640195135.4,286047001.6,N
1640195155.3,286047002.7,N
1640195175.1,286047001.8,N
1640195195.8,286047002.0,N
1640195215.7,286047001.6,N
1640195235.5,286047002.3,N
1640195255.4,286047001.3,N
1640195275.2,286047004.0,Y
1640195295.0,286046999.8,P
1640195295.9,286046999.8,N
1640195315.8,286047002.1,N
1640195335.6,286047002.8,N
1640195355.5,286046999.7,N
1640195375.3,286047001.1,N
1640195395.1,286046998.1,N
1640195415.9,286047000.2,N
1640195435.7,286047002.4,N
1640195455.5,286046999.9,N
1640195475.4,286047000.6,N
1640195495.2,286047000.3,N
1640195515.0,286047002.7,N
1640195516.0,286047002.7,N
1640195535.8,286047001.9,N
1640195555.6,286047002.6,N
1640195575.5,286047001.6,N
1640195595.3,286047003.7,N
1640195615.2,286047003.0,N
1640195635.9,286047004.0,N
1640195655.7,286047001.3,N
1640195675.6,286047002.3,N
1640195695.4,286047001.7,N
1640195715.2,286047001.8,N
1640195735.1,286047004.4,Y
1640195736.0,286047004.4,P
1640195755.8,286047000.3,N
1640195775.7,286047000.1,N
1640195795.5,286046999.7,N
1640195815.3,286047002.3,N
1640195835.2,286047002.3,N
1640195855.0,286046999.8,N
1640195855.9,286046999.8,N
1640195875.7,286047000.1,N
1640195895.6,286047000.3,N
1640195915.4,286047000.7,N
1640195935.3,286047002.1,N
1640195955.1,286047002.6,N
1640195956.0,286047002.6,N
1640195975.8,286047002.2,N
1640195995.7,286047002.7,N
